Saginaw, MI

2:48 PM EDT on September 26, 2017 (GMT -0400)
MBS International

Weather History for KMBS - May, 2013

Change the Weather History Date:

Monday, May 27, 2013

  Actual Average Record
Temperature  
Mean Temperature 58 °F 61 °F  
Max Temperature 72 °F 72 °F 88 °F (2016)
Min Temperature 44 °F 51 °F 41 °F (2008)
Degree Days  
Heating Degree Days 7    
Month to date heating degree days 171  
Since 1 July heating degree days 6493  
Cooling Degree Days 0    
Month to date cooling degree days 44  
Year to date cooling degree days 45  
Growing Degree Days 8 (Base 50)    
Moisture  
Dew Point 38 °F    
Average Humidity 49    
Maximum Humidity 76    
Minimum Humidity 22    
Precipitation  
Precipitation 0.00 in 0.10 in 1.85 in (2012)
Month to date precipitation 2.30 2.97  
Year to date precipitation 15.48 11.24  
Snow  
Snow 0.00 in - - ()
Month to date snowfall T  
Since 1 July snowfall 43.5  
Snow Depth 0.00 in    
Sea Level Pressure  
Sea Level Pressure 30.17 in    
Wind  
Wind Speed 8 mph (SE)    
Max Wind Speed 18 mph    
Max Gust Speed 23 mph    
Visibility 10 miles    
Events      
T = Trace of Precipitation, MM = Missing Value Source: NWS Daily Summary

Daily Weather History Graph

Daily Weather History Graph

Search for Another Location

Airport or City:

Trip Planner

Search our weather history database for the weather conditions in past years. The results will help you decide how hot, cold, wet, or windy it might be!

Date:

Astronomy

May. 27, 2013 Rise Set
Actual Time 6:00 AM EDT 9:06 PM EDT
Civil Twilight 5:26 AM EDT 9:41 PM EDT
Nautical Twilight 4:42 AM EDT 10:25 PM EDT
Astronomical Twilight 3:49 AM EDT 11:18 PM EDT
Moon 11:42 PM EDT (5/27) 8:38 AM EDT (5/27)
Length of Visible Light 16h 14m
Length of Day
15h 05m
Waning Gibbous, 91% of the Moon is Illuminated
May 27
Waning Gibbous
May 31
Last Quarter
Jun 8
New
Jun 16
First Quarter
Jun 23
Full

Hourly Weather History & Observations

Time (EDT) Temp. Windchill Dew Point Humidity Pressure Visibility Wind Dir Wind Speed Gust Speed Precip Events Conditions
12:53 AM 50.0 °F - 37.9 °F 63% 30.27 in 10.0 mi East 4.6 mph - N/A   Clear
1:53 AM 48.9 °F - 39.0 °F 69% 30.27 in 10.0 mi ESE 3.5 mph - N/A   Clear
2:53 AM 48.9 °F - 37.9 °F 66% 30.27 in 10.0 mi SE 4.6 mph - N/A   Clear
3:53 AM 46.9 °F - 37.0 °F 68% 30.25 in 10.0 mi SE 3.5 mph - N/A   Clear
4:53 AM 45.0 °F 42.6 °F 37.0 °F 74% 30.25 in 10.0 mi SE 4.6 mph - N/A   Clear
5:53 AM 45.0 °F - 37.0 °F 74% 30.24 in 10.0 mi Calm Calm - N/A   Clear
6:53 AM 46.0 °F - 39.0 °F 76% 30.25 in 10.0 mi Calm Calm - N/A   Clear
7:53 AM 48.9 °F - 39.0 °F 69% 30.26 in 10.0 mi ESE 3.5 mph - N/A   Clear
8:53 AM 54.0 °F - 39.0 °F 57% 30.25 in 10.0 mi ESE 6.9 mph - N/A   Clear
9:53 AM 57.9 °F - 35.1 °F 42% 30.25 in 10.0 mi SE 6.9 mph - N/A   Clear
10:53 AM 62.1 °F - 30.0 °F 30% 30.22 in 10.0 mi East 8.1 mph - N/A   Clear
11:53 AM 64.9 °F - 30.0 °F 27% 30.19 in 10.0 mi East 10.4 mph - N/A   Clear
12:53 PM 68.0 °F - 28.9 °F 23% 30.17 in 10.0 mi ESE 8.1 mph - N/A   Clear
1:53 PM 69.1 °F - 32.0 °F 25% 30.15 in 10.0 mi SE 8.1 mph - N/A   Scattered Clouds
2:53 PM 71.1 °F - 33.1 °F 25% 30.14 in 10.0 mi SSE 10.4 mph - N/A   Scattered Clouds
3:53 PM 71.1 °F - 33.1 °F 25% 30.12 in 10.0 mi SE 8.1 mph - N/A   Scattered Clouds
4:53 PM 66.0 °F - 39.0 °F 37% 30.11 in 10.0 mi South 13.8 mph - N/A   Mostly Cloudy
5:53 PM 64.0 °F - 44.1 °F 48% 30.08 in 10.0 mi South 10.4 mph - N/A   Overcast
6:53 PM 64.0 °F - 43.0 °F 46% 30.06 in 10.0 mi SSE 9.2 mph - N/A   Mostly Cloudy
7:53 PM 62.1 °F - 42.1 °F 48% 30.06 in 10.0 mi South 9.2 mph - N/A   Overcast
8:53 PM 59.0 °F - 41.0 °F 51% 30.06 in 10.0 mi South 9.2 mph - N/A   Overcast
9:53 PM 57.0 °F - 46.9 °F 69% 30.06 in 10.0 mi SE 13.8 mph - N/A   Overcast
10:00 PM 57.2 °F - 46.4 °F 67% 30.06 in 10.0 mi SSE 9.2 mph - N/A   Overcast
10:53 PM 55.9 °F - 46.9 °F 72% 30.05 in 10.0 mi SE 10.4 mph - N/A   Overcast
11:53 PM 55.0 °F - 46.0 °F 72% 30.04 in 10.0 mi SE 10.4 mph - N/A   Overcast